Date,TemperatureHighF,TemperatureAvgF,TemperatureLowF,DewpointHighF,DewpointAvgF,DewpointLowF,HumidityHigh,HumidityAvg,HumidityLow,PressureMaxIn,PressureMinIn,WindSpeedMaxMPH,WindSpeedAvgMPH,GustSpeedMaxMPH,PrecipitationSumIn
2012-1-1,76,29,55,61,-37,-100,98,25,46,30.22,30.10,5,-596,9,0.00
2012-1-2,63,21,57,56,-49,-100,82,21,46,30.18,30.03,14,-647,24,0.00
2012-1-3,49,20,46,31,-47,-100,52,20,41,30.33,30.13,15,-583,27,0.00
2012-1-4,55,20,32,26,-49,-100,62,14,19,30.38,30.24,6,-577,11,0.00
2012-1-5,64,25,38,51,-36,-100,91,29,58,30.27,30.14,7,-568,11,0.00
2012-1-6,69,26,48,58,-37,-100,97,29,58,30.17,30.06,6,-593,8,0.00
2012-1-7,72,27,54,58,-38,-100,97,26,47,30.12,30.04,3,-594,7,0.00
2012-1-8,76,29,51,57,-36,-100,97,25,40,30.17,30.08,8,-578,11,0.00
2012-1-9,77,29,56,60,-35,-100,96,27,51,30.15,30.01,4,-590,11,0.00
2012-1-10,78,30,58,61,-33,-100,96,27,45,30.04,29.87,4,-573,12,0.00
2012-1-11,72,25,68,67,-41,-100,92,30,77,29.90,29.74,10,-641,22,0.00
2012-1-12,-200,0,200,-100,-100,-100,0,0,100,29.79,29.78,0,-999,0,0.00
2012-1-13,60,56,52,44,42,40,71,61,53,30.17,30.05,16,7,25,0.04
2012-1-14,56,51,44,47,34,23,74,54,29,30.31,30.16,12,5,25,0.00
2012-1-15,66,53,37,48,40,34,89,66,31,30.39,30.28,15,3,26,0.00
2012-1-16,73,58,45,51,46,39,83,65,43,30.37,30.23,17,4,31,0.00
2012-1-17,74,62,50,56,53,48,92,74,49,30.27,30.09,17,3,31,0.00
2012-1-18,73,63,55,64,58,52,94,86,58,30.09,29.94,23,4,33,0.12
2012-1-19,62,56,52,59,53,45,93,88,61,30.12,29.97,10,2,21,0.00
2012-1-27,70,66,62,67,60,56,96,83,75,30.01,29.91,25,9,28,0.36
2012-1-28,67,62,55,59,55,50,94,78,56,30.13,30.00,25,6,33,0.00
2012-1-29,63,58,54,54,52,51,88,83,68,30.22,30.11,10,1,17,0.00
2012-1-30,74,65,52,50,46,40,78,52,35,30.29,30.18,16,8,28,0.00
2012-1-31,79,66,55,55,52,47,85,63,34,30.26,30.14,17,5,28,0.00
2012-2-1,79,66,58,63,59,54,91,78,45,30.19,30.06,20,4,28,0.00
2012-2-2,77,67,58,64,60,55,93,79,52,30.10,30.01,16,4,23,0.00
2012-2-3,75,69,64,63,61,59,91,76,58,30.15,30.06,15,6,29,0.00
2012-2-4,82,71,64,65,62,60,90,76,49,30.10,29.97,19,6,35,0.00
2012-2-5,76,70,64,67,65,62,95,85,68,30.02,29.92,15,5,19,0.00
2012-2-6,81,71,67,68,66,64,97,86,59,30.00,29.90,18,3,26,0.58
2012-2-7,73,68,64,69,65,63,98,91,80,30.00,29.92,10,3,21,0.00
2012-2-8,74,66,59,63,57,52,92,74,48,30.06,29.95,20,7,25,0.00
2012-2-9,73,64,56,57,54,50,89,70,53,30.09,29.99,11,4,21,0.00
2012-2-10,75,66,58,66,61,54,96,85,73,30.05,29.84,23,6,29,0.27
2012-2-11,64,61,58,64,59,56,100,92,83,29.92,29.82,21,7,27,0.02
2012-2-13,61,54,37,50,38,22,86,56,33,30.20,30.03,16,5,23,0.00
2012-2-14,74,63,48,60,54,45,90,74,57,30.06,29.98,20,7,33,0.00
2012-2-15,74,64,60,62,60,58,96,86,62,30.12,30.02,7,2,13,0.00
2012-2-16,77,73,68,66,64,63,88,75,64,30.10,30.00,21,9,38,0.00
2012-2-17,73,69,66,67,66,64,97,89,77,30.00,29.92,9,2,15,0.00
2012-2-18,76,70,64,68,66,64,100,89,67,29.95,29.81,17,4,23,0.00
2012-2-19,76,71,64,72,67,54,98,87,70,29.89,29.77,31,17,40,0.03
2012-2-20,72,64,56,56,50,44,77,63,38,30.13,29.89,29,9,41,0.00
2012-2-21,76,63,51,61,55,48,94,77,53,30.16,30.04,20,5,30,0.00
2012-2-22,75,69,61,67,63,58,94,84,68,30.04,29.87,18,8,32,0.00
2012-2-23,78,72,70,70,69,67,98,89,73,29.91,29.83,21,12,35,0.00
2012-2-24,80,74,68,71,69,66,100,86,65,29.94,29.85,23,12,38,0.00
2012-2-25,72,68,62,71,60,45,96,79,54,30.08,29.93,17,9,36,0.01
2012-2-27,81,76,68,70,67,64,91,75,55,30.21,30.11,15,7,33,0.00
2012-2-28,84,73,66,69,66,62,98,79,51,30.20,30.08,13,4,30,0.00
2012-2-29,81,72,66,68,66,64,98,83,58,30.15,30.02,16,6,29,0.00
2012-3-1,79,72,66,71,66,63,99,85,59,30.04,29.94,15,5,28,0.00
2012-3-2,80,73,67,71,68,66,100,88,66,29.98,29.87,20,6,34,0.00
2012-3-3,80,76,70,71,70,68,94,83,70,29.86,29.74,28,15,50,0.00
2012-3-4,75,64,57,72,49,31,91,60,31,30.16,29.65,42,23,58,0.06
2012-3-5,71,61,48,52,41,28,71,49,21,30.30,30.16,23,8,31,0.00
2012-3-6,80,65,50,56,51,46,90,64,36,30.32,30.22,19,8,41,0.00
2012-3-7,82,70,58,62,57,53,87,65,40,30.30,30.16,18,7,40,0.00
2012-3-8,84,72,63,67,63,59,94,75,45,30.20,30.06,18,6,29,0.00
2012-3-9,80,72,64,69,66,63,96,83,60,30.13,30.02,20,6,29,0.00
2012-3-10,80,72,65,67,65,62,95,80,55,30.14,30.03,21,6,31,0.00
2012-3-11,83,71,66,68,65,63,96,82,51,30.20,30.09,16,7,30,0.22
2012-3-12,82,73,64,65,61,57,92,69,44,30.20,30.09,18,6,30,0.07
2012-3-13,83,70,63,65,61,56,89,73,41,30.17,30.06,24,5,34,0.00
2012-3-14,82,71,60,66,61,57,93,73,44,30.16,30.05,20,4,33,0.00
2012-3-15,86,73,62,65,61,53,95,68,35,30.17,30.04,12,4,25,0.00
2012-3-16,82,72,63,65,62,60,96,73,49,30.16,30.03,25,6,29,0.00
2012-3-17,85,73,61,65,58,48,94,64,29,30.16,30.03,17,4,25,0.00
2012-3-18,85,72,60,67,59,50,92,68,33,30.17,30.03,15,4,34,0.00
2012-3-19,84,72,62,65,60,53,92,69,35,30.11,29.97,19,5,33,0.00
2012-3-20,83,72,62,65,61,58,90,70,46,30.03,29.92,19,5,26,0.00
2012-3-21,84,73,64,70,65,60,96,78,45,30.06,29.92,19,6,34,0.90
2012-3-22,83,74,67,69,67,65,97,81,54,30.08,29.97,19,6,27,0.00
2012-3-23,80,74,68,69,67,64,91,79,59,30.05,29.94,19,5,28,0.00
2012-3-24,78,73,68,71,67,62,98,82,58,29.97,29.86,20,7,36,0.00
2012-3-25,76,72,69,70,63,53,96,75,53,29.88,29.78,26,13,33,0.52
2012-3-26,77,72,64,63,58,53,89,63,43,29.96,29.83,25,11,34,0.00
2012-3-27,85,72,59,60,54,45,89,58,30,30.09,29.94,14,4,27,0.00
2012-3-28,84,72,63,66,60,51,88,69,35,30.11,29.96,22,6,30,0.00
2012-3-29,79,71,66,66,64,61,91,79,57,30.00,29.90,21,5,28,0.00
2012-3-30,82,73,66,67,64,58,96,74,44,29.99,29.90,18,5,27,0.00
2012-3-31,79,72,68,70,67,65,93,85,72,29.92,29.83,30,7,48,0.33
2012-4-1,77,73,68,68,66,63,88,79,72,29.89,29.81,23,10,33,0.00
2012-4-2,80,73,65,69,66,61,96,80,55,29.87,29.77,21,6,28,0.00
2012-4-3,83,73,65,70,65,58,98,79,44,29.92,29.83,23,4,29,0.00
2012-4-4,82,74,64,72,67,62,94,80,58,29.90,29.75,33,6,40,0.07
2012-4-5,80,73,67,70,66,62,98,81,58,29.82,29.64,18,7,30,0.10
2012-4-6,79,75,68,69,64,54,83,69,49,29.88,29.68,31,19,43,0.00
2012-4-7,82,70,59,60,56,52,84,62,37,30.07,29.88,15,6,34,0.00
2012-4-8,79,70,58,59,54,48,84,60,35,30.10,29.99,27,8,35,0.00
2012-4-9,81,70,59,64,58,52,85,69,37,30.03,29.92,22,6,33,0.00
2012-4-10,80,72,62,63,60,56,87,67,46,30.01,29.91,23,7,30,0.00
2012-4-11,78,73,66,64,62,56,90,69,49,30.00,29.92,23,11,33,0.00
2012-4-12,79,73,67,65,55,44,82,55,30,30.00,29.91,27,10,36,0.00
2012-4-13,82,73,63,67,62,51,91,71,35,30.03,29.95,20,7,25,0.00
2012-4-14,81,73,66,65,62,59,89,69,53,30.13,30.01,22,10,33,0.00
2012-4-15,83,74,64,62,59,56,85,61,43,30.13,30.05,20,9,33,0.00
2012-4-16,83,74,63,64,60,54,88,64,41,30.12,30.03,22,6,31,0.00
2012-4-17,84,74,63,64,60,53,90,64,35,30.08,29.95,25,6,39,0.00
2012-4-18,80,75,68,68,63,58,80,68,48,30.01,29.89,19,7,33,0.00
2012-4-19,79,74,70,70,68,66,91,81,68,29.91,29.80,17,5,25,0.00
2012-4-20,82,75,68,72,68,64,97,80,60,29.85,29.74,15,5,31,0.02
2012-4-21,80,70,67,68,66,63,96,87,58,29.81,29.54,24,9,32,1.42
2012-4-22,75,69,61,68,62,50,99,81,46,29.70,29.47,37,18,52,1.58
2012-4-23,72,69,64,52,48,43,57,49,38,29.85,29.69,39,28,53,0.00
2012-4-24,68,63,53,48,42,30,60,46,28,29.98,29.83,26,12,36,0.00
2012-4-25,74,65,52,57,50,45,90,62,37,30.05,29.95,20,5,29,0.00
2012-4-26,78,68,59,63,60,56,93,76,56,30.08,29.99,23,6,31,0.00
2012-4-27,79,71,62,64,62,58,95,76,50,30.05,29.97,25,6,34,0.00
2012-4-28,86,74,64,72,67,62,93,81,52,30.02,29.93,22,5,33,0.20
2012-4-29,85,76,67,70,67,62,96,77,46,30.01,29.92,15,4,31,0.00
2012-4-30,73,70,68,69,66,65,94,88,81,30.02,29.95,11,3,17,0.00
2012-5-3,86,81,76,70,67,64,81,64,49,30.01,29.94,15,7,29,0.00
2012-5-4,84,77,72,70,68,63,88,75,53,30.02,29.91,18,5,26,0.00
2012-5-5,82,76,69,71,69,65,94,79,65,29.95,29.86,21,6,29,0.00
2012-5-6,83,77,69,72,68,66,96,76,58,29.91,29.83,18,5,30,0.00
2012-5-7,82,76,70,70,68,64,93,76,55,29.85,29.78,19,5,31,0.00
2012-5-8,82,75,67,71,68,65,96,79,60,29.85,29.77,22,6,30,0.00
2012-5-9,83,78,73,72,70,68,90,78,64,29.83,29.72,23,8,30,0.00
2012-5-10,80,78,74,71,65,55,81,65,48,29.85,29.71,25,16,32,0.00
2012-5-11,90,77,65,70,62,51,86,63,27,30.03,29.84,25,6,33,0.00
2012-5-12,89,79,70,68,63,59,81,59,37,30.08,29.97,16,8,26,0.00
2012-5-13,88,77,70,69,65,61,78,68,43,30.05,29.93,16,6,23,0.00
2012-5-14,84,78,73,72,69,63,88,75,52,29.99,29.86,12,4,25,0.01
2012-5-15,84,78,72,73,70,67,85,76,65,29.95,29.88,18,5,23,0.00
2012-5-17,82,78,71,74,69,66,99,77,60,29.87,29.80,21,7,31,0.37
2012-5-18,83,77,69,71,68,65,94,76,56,29.87,29.80,20,6,27,0.00
2012-5-19,86,78,69,70,68,64,96,74,49,29.92,29.80,23,7,32,0.00
2012-5-20,84,77,68,68,64,55,90,67,37,29.91,29.83,24,8,33,0.00
2012-5-21,86,76,66,64,60,46,89,60,27,29.93,29.84,23,7,34,0.00
2012-5-22,83,76,66,69,65,52,88,70,40,29.89,29.80,18,6,27,0.00
2012-5-23,85,78,67,71,67,60,95,72,44,29.85,29.74,24,7,36,0.00
2012-5-24,92,79,70,74,71,66,97,77,44,29.84,29.72,25,5,33,0.44
2012-5-25,91,80,72,76,72,68,97,77,52,29.96,29.82,18,5,27,0.01
2012-5-26,89,80,71,74,70,65,95,73,48,29.98,29.86,24,7,38,0.00
2012-5-27,84,80,74,76,72,66,92,77,59,29.92,29.77,29,10,45,0.02
2012-5-28,85,81,75,76,74,69,91,80,69,29.84,29.75,21,12,36,0.01
2012-5-29,83,80,79,74,73,71,82,78,70,29.88,29.79,18,10,30,0.00
2012-5-30,85,81,78,75,74,72,86,79,70,29.84,29.76,21,12,32,0.00
2012-5-31,85,80,77,75,72,68,90,77,60,29.86,29.78,17,6,29,0.00
2012-6-1,79,75,72,74,72,70,98,91,77,29.87,29.78,21,3,30,0.77
2012-6-2,84,78,72,74,72,69,99,83,69,29.91,29.81,32,8,33,0.20
2012-6-3,84,79,72,72,70,66,92,75,56,29.98,29.87,17,5,28,0.00
2012-6-4,84,79,73,76,73,70,90,81,68,29.92,29.78,21,8,33,0.00
2012-6-5,83,78,75,76,74,71,96,87,74,29.80,29.74,15,4,27,0.12
2012-6-6,84,77,71,76,73,68,96,88,75,29.86,29.75,22,4,49,0.48
2012-6-7,84,78,72,78,75,70,98,92,76,29.89,29.81,18,5,37,1.44
2012-6-8,86,77,72,76,73,71,98,88,70,29.93,29.80,22,3,33,0.99
2012-6-9,87,79,70,77,73,70,98,82,65,29.94,29.81,18,6,26,0.07
2012-6-10,91,82,76,77,74,70,93,78,57,30.05,29.89,18,5,31,0.00
2012-6-11,90,82,74,76,73,70,89,75,54,30.05,29.95,19,6,32,0.00
2012-6-12,87,81,74,76,72,69,85,74,60,30.00,29.88,21,6,28,0.00
2012-6-13,85,81,78,76,74,72,87,79,66,29.92,29.81,22,9,32,0.00
2012-6-14,86,82,74,76,73,68,85,74,65,29.93,29.83,22,10,31,0.00
2012-6-15,89,78,70,74,70,64,94,77,52,29.96,29.86,24,3,31,0.00
2012-6-16,90,81,72,71,67,52,91,66,30,29.96,29.88,14,5,31,0.00
2012-6-17,90,80,70,68,65,62,89,63,42,29.98,29.84,13,4,28,0.00
2012-6-18,89,80,70,68,64,59,87,62,37,29.96,29.87,12,4,27,0.00
2012-6-19,86,78,69,68,65,59,88,65,42,29.97,29.89,14,4,29,0.00
2012-6-20,87,77,73,75,71,66,98,80,57,29.96,29.85,18,6,32,0.42
2012-6-21,88,78,73,75,73,71,98,88,59,29.90,29.78,18,3,24,0.19
2012-6-22,85,78,75,76,74,72,98,89,69,29.83,29.75,16,4,31,0.22
2012-6-23,78,76,74,77,74,72,98,95,83,29.86,29.77,13,5,24,0.46
2012-6-24,81,77,74,78,76,74,98,95,83,29.83,29.60,32,19,58,1.58
2012-6-25,83,80,75,76,75,72,97,85,73,29.63,29.55,37,25,60,1.59
2012-6-26,83,80,76,77,75,72,93,86,81,29.60,29.50,30,22,55,0.48
2012-6-27,82,79,75,75,72,71,94,82,73,29.92,29.60,35,14,41,0.47
2012-6-28,89,80,72,73,67,60,89,67,41,30.00,29.92,19,5,27,0.40
2012-6-29,78,73,70,70,68,67,92,85,70,29.98,29.92,0,0,15,0.03
2012-7-2,86,84,80,76,74,73,82,74,69,30.00,29.92,19,11,32,0.00
2012-7-3,86,82,76,76,74,70,94,77,61,30.00,29.90,17,5,23,0.00
2012-7-4,90,82,76,75,72,69,90,74,54,30.01,29.94,23,3,27,0.00
2012-7-5,88,82,74,74,72,69,88,73,58,29.99,29.89,14,3,22,0.00
2012-7-6,88,82,76,74,72,69,90,74,57,29.98,29.91,19,4,28,0.00
2012-7-7,90,83,76,76,73,71,89,74,56,30.00,29.94,21,4,25,0.23
2012-7-8,91,82,75,76,73,67,94,76,50,30.01,29.91,24,5,33,0.01
2012-7-9,91,83,77,77,74,69,90,73,54,29.97,29.86,19,3,25,0.02
2012-7-10,90,78,74,75,73,68,97,84,53,29.97,29.88,19,2,23,1.39
2012-7-11,88,77,73,74,73,71,98,88,60,29.96,29.88,18,2,29,0.86
2012-7-12,88,79,73,75,73,69,98,81,57,29.95,29.86,11,1,20,0.00
2012-7-13,88,78,74,76,74,71,98,87,59,29.98,29.89,18,3,27,1.20
2012-7-14,90,80,74,78,74,70,97,83,53,30.00,29.92,15,3,27,0.08
2012-7-15,88,79,74,75,73,69,96,83,56,30.03,29.94,17,3,26,0.13
2012-7-16,84,78,74,76,74,72,97,86,71,30.00,29.88,16,3,21,0.80
2012-7-17,83,77,74,76,73,71,98,88,74,29.96,29.87,20,4,30,0.68
2012-7-18,86,80,75,76,74,72,98,83,64,30.03,29.91,16,3,21,0.01
2012-7-19,88,82,76,79,76,73,97,83,61,30.08,30.01,19,4,23,0.00
2012-7-20,90,83,77,77,75,73,97,79,58,30.04,29.95,18,5,26,0.00
2012-7-21,91,82,72,77,74,66,97,80,54,30.05,29.94,27,4,34,0.74
2012-7-22,93,79,73,78,74,68,97,86,51,30.06,29.92,31,3,40,0.34
2012-7-23,87,78,73,77,74,70,98,86,67,30.06,30.01,22,4,27,0.01
2012-7-24,88,80,75,77,74,71,94,82,65,30.06,29.95,20,4,29,0.00
2012-7-25,88,83,78,77,76,73,87,79,66,29.97,29.91,20,5,32,0.07
2012-7-26,88,83,79,76,75,72,88,76,62,29.97,29.89,16,4,25,0.00
2012-7-27,88,83,78,76,74,72,89,75,60,30.01,29.91,18,4,29,0.00
2012-7-28,88,83,77,78,74,71,95,77,60,30.03,29.94,20,5,29,0.00
2012-7-29,88,83,77,76,74,72,93,76,60,30.00,29.91,17,4,29,0.00
2012-7-30,88,83,78,76,74,68,91,76,58,29.97,29.91,28,5,29,0.00
2012-7-31,88,82,77,76,74,69,91,76,53,29.97,29.89,20,5,33,0.00
2012-8-1,87,82,77,77,75,72,93,78,67,29.94,29.85,24,6,27,0.01
2012-8-2,88,83,77,77,74,71,94,76,58,29.92,29.84,21,5,31,0.00
2012-8-3,88,80,76,76,72,68,93,78,58,29.94,29.85,20,3,31,0.00
2012-8-4,91,82,74,75,72,68,92,73,50,29.95,29.88,22,6,35,0.00
2012-8-5,90,80,75,77,74,70,94,83,57,29.99,29.90,27,3,41,0.37
2012-8-6,91,78,73,78,74,70,97,88,58,30.00,29.86,18,3,32,0.65
2012-8-7,89,81,74,78,75,73,97,83,64,29.94,29.86,9,2,19,0.00
2012-8-8,91,84,78,76,74,72,88,74,55,29.95,29.88,20,4,27,0.00
2012-8-9,93,84,75,76,73,68,90,72,46,29.92,29.81,17,4,23,0.00
2012-8-10,88,82,77,76,73,70,92,76,61,29.89,29.81,12,1,19,0.00
2012-8-11,87,82,74,76,73,71,91,77,64,29.89,29.82,21,4,33,0.00
2012-8-15,89,87,82,77,73,-100,83,69,59,29.97,29.88,16,5,23,0.00
2012-8-16,90,83,73,78,75,70,96,77,59,30.03,29.90,16,2,21,0.66
2012-8-17,88,82,78,78,76,70,94,81,62,29.96,29.85,27,3,45,0.00
2012-8-18,83,78,74,76,75,71,96,88,76,29.94,29.82,16,1,31,0.51
2012-8-19,88,82,77,78,75,72,95,81,61,29.92,29.84,20,5,36,0.04
2012-8-20,88,83,76,76,75,72,94,78,61,29.95,29.82,39,8,44,0.04
2012-8-21,88,80,72,78,74,69,98,85,60,30.02,29.88,25,7,38,0.87
2012-8-22,87,77,73,75,72,70,98,85,64,30.02,29.92,35,5,54,0.00
2012-8-23,88,80,73,74,72,70,96,77,58,30.02,29.93,13,2,27,0.00
2012-8-24,93,82,74,75,72,67,96,72,46,29.97,29.84,9,2,21,0.00
2012-8-25,90,81,74,76,71,67,93,74,54,29.92,29.83,15,4,36,0.09
2012-8-26,83,78,75,76,74,70,96,85,76,29.91,29.71,18,10,40,0.33
2012-8-27,86,79,75,79,76,74,98,91,77,29.76,29.60,25,13,47,1.34
2012-8-28,87,82,78,79,76,74,97,84,72,29.88,29.76,26,12,46,0.20
2012-8-29,86,81,76,78,75,72,96,84,64,29.90,29.83,21,7,39,0.13
2012-8-30,90,82,76,78,75,71,96,80,54,30.03,29.88,16,2,23,0.00
2012-8-31,92,83,76,77,74,69,96,76,50,30.08,29.99,7,1,16,0.00
2012-9-1,92,84,76,77,72,68,96,71,47,30.07,29.95,9,2,21,0.00
2012-9-2,91,82,74,74,70,64,93,72,42,30.01,29.89,18,3,28,0.00
2012-9-3,90,81,72,74,70,62,92,70,40,29.98,29.89,14,2,23,0.00
2012-9-4,89,81,74,74,72,67,95,76,51,29.94,29.86,20,4,30,0.00
2012-9-5,87,81,75,74,73,69,95,78,60,29.91,29.83,16,4,32,0.00
2012-9-6,87,80,75,76,73,71,94,80,63,29.93,29.86,14,4,24,0.03
2012-9-7,87,80,74,76,74,71,96,81,62,29.91,29.82,15,4,27,0.00
2012-9-8,87,82,76,76,74,72,95,78,63,29.88,29.79,20,7,33,0.00
2012-9-9,84,81,75,78,76,72,97,84,77,29.90,29.79,23,10,36,1.20
2012-9-10,86,81,77,77,75,71,92,81,68,29.94,29.84,19,4,25,0.00
2012-9-11,89,80,75,76,73,69,97,80,60,30.04,29.92,12,3,32,0.00
2012-9-12,89,79,73,73,70,66,85,73,53,30.03,29.95,17,4,33,0.00
2012-9-13,86,79,74,74,72,69,90,79,63,30.01,29.91,16,4,32,0.00
2012-9-14,89,79,74,76,73,71,94,82,57,29.98,29.88,12,3,23,0.40
2012-9-15,87,80,74,75,72,70,96,80,61,29.98,29.89,11,2,25,0.00
2012-9-16,88,77,71,74,72,70,97,86,55,29.97,29.89,11,2,23,0.20
2012-9-17,87,78,72,77,73,70,98,85,59,29.93,29.81,19,4,25,0.14
2012-9-18,85,78,75,78,75,71,96,89,75,29.87,29.80,34,6,47,0.35
2012-9-19,84,79,76,75,74,72,92,83,70,29.92,29.83,17,4,23,0.00
2012-9-20,87,82,73,75,72,70,92,73,62,29.95,29.85,17,3,30,0.06
2012-9-21,87,78,73,74,72,69,96,82,56,29.93,29.82,11,1,26,0.10
2012-9-22,86,78,72,74,72,68,97,84,56,29.96,29.86,16,4,26,0.00
2012-9-23,75,74,74,73,72,72,96,94,92,29.95,29.92,0,0,8,0.00
2012-9-25,84,78,67,68,65,60,84,65,50,30.02,29.94,13,1,15,0.00
2012-9-26,87,77,71,73,70,67,97,81,59,30.02,29.95,18,3,21,0.00
2012-9-27,88,79,72,75,71,66,96,78,51,30.03,29.91,21,4,28,0.00
2012-9-28,86,78,72,75,72,69,96,81,58,29.97,29.85,19,5,36,0.78
2012-9-29,87,78,73,76,73,69,98,85,56,29.91,29.77,15,3,36,0.00
2012-9-30,87,80,73,75,73,68,97,82,54,29.83,29.70,14,3,25,0.00
2012-10-1,86,80,76,76,74,71,95,82,62,29.74,29.65,17,5,30,0.02
2012-10-2,83,80,76,77,74,73,94,84,73,29.94,29.72,14,3,20,0.08
2012-10-3,83,76,74,78,74,71,98,92,77,30.06,29.92,18,3,29,1.68
2012-10-4,90,77,71,78,73,68,97,90,59,30.09,29.99,22,2,37,0.46
2012-10-5,88,78,72,78,73,70,98,87,65,30.05,29.86,18,4,22,0.10
2012-10-6,85,78,73,77,73,70,98,84,66,29.91,29.78,15,2,23,0.00
2012-10-7,88,78,71,75,71,69,97,82,57,29.91,29.82,17,2,21,0.00
2012-10-8,85,77,72,76,73,70,96,87,68,29.95,29.85,12,2,20,0.00
2012-10-9,86,78,72,75,72,69,97,81,58,29.97,29.89,16,2,23,0.00
2012-10-10,85,79,70,72,69,67,92,74,56,30.03,29.94,16,4,27,0.00
2012-10-11,86,75,66,68,66,62,95,73,48,30.09,30.00,12,2,23,0.00
2012-10-12,85,74,67,67,65,64,90,74,51,30.10,30.01,14,4,28,0.00
2012-10-15,84,80,73,74,72,68,94,78,66,29.86,29.72,19,6,27,0.00
2012-10-16,83,76,70,72,68,62,97,78,59,29.80,29.71,20,5,33,0.00
2012-10-17,78,73,69,70,67,62,94,81,68,29.82,29.72,9,0,11,0.00
2012-10-18,86,76,69,73,71,68,98,84,59,29.82,29.72,18,3,30,0.00
2012-10-19,83,76,70,73,71,68,98,83,63,29.80,29.74,16,3,27,0.00
2012-10-20,81,62,74,72,31,-100,88,53,47,29.89,29.76,19,-200,29,0.00
2012-10-21,82,35,61,56,-31,-100,75,20,33,29.97,29.88,14,-543,25,0.00
2012-10-22,84,35,65,64,-28,-100,82,25,45,29.99,29.88,16,-552,32,0.00
2012-10-23,83,34,65,68,-26,-100,88,30,57,29.97,29.87,16,-552,32,0.00
2012-10-24,86,34,74,71,-31,-100,84,25,46,29.93,29.80,15,-580,32,0.00
2012-10-25,83,33,73,72,-29,-100,87,29,62,29.84,29.69,14,-579,32,0.00
2012-10-26,85,37,74,69,-24,-100,82,28,45,29.72,29.54,21,-537,42,0.00
2012-10-27,78,34,74,65,-26,-100,72,30,60,29.65,29.53,34,-534,51,0.00
2012-10-28,73,32,68,62,-28,-100,74,29,57,29.75,29.63,32,-536,51,0.00
2012-10-29,66,30,60,51,-33,-100,68,25,42,29.82,29.72,32,-527,50,0.00
2012-10-30,66,29,60,49,-33,-100,59,24,45,29.89,29.77,35,-528,46,0.00
2012-10-31,69,43,57,58,0,-100,84,41,50,29.99,29.89,14,-342,24,0.00
2012-11-1,75,69,62,66,62,57,93,79,62,29.97,29.88,17,4,24,0.01
2012-11-2,74,65,58,62,58,48,98,79,39,30.02,29.94,19,3,25,0.00
2012-11-3,76,67,56,68,62,54,97,86,69,30.06,29.98,16,4,24,0.00
2012-11-4,77,68,62,70,64,61,99,88,62,30.05,29.93,13,3,17,0.00
2012-11-5,74,70,65,69,64,61,97,85,65,29.94,29.85,11,2,15,0.00
2012-11-6,74,67,60,66,61,52,95,83,56,29.88,29.75,25,5,38,0.18
2012-11-7,67,64,60,57,51,44,81,65,50,29.92,29.79,25,12,40,0.00
2012-11-8,66,58,50,50,43,38,80,58,36,30.10,29.91,22,5,33,0.00
2012-11-9,73,60,46,50,46,41,91,64,39,30.18,30.07,17,2,21,0.00
2012-11-10,76,65,54,55,51,47,84,63,42,30.22,30.12,12,3,28,0.00
2012-11-11,80,68,58,62,58,54,88,71,46,30.20,30.11,14,3,29,0.00
2012-11-12,82,71,62,68,63,59,92,77,50,30.15,30.05,12,2,25,0.07
2012-11-13,79,71,65,68,66,64,96,83,62,30.09,30.00,13,2,20,0.00
2012-11-14,78,69,63,67,64,62,97,86,64,30.10,30.00,9,2,23,0.00
2012-11-15,72,67,63,64,62,59,96,85,72,30.06,29.99,8,2,16,0.00
2012-11-16,66,62,59,59,57,56,92,85,74,30.10,30.00,8,2,19,0.00
2012-11-17,75,66,60,64,60,56,92,81,62,30.06,29.98,18,7,30,0.00
2012-11-18,74,65,58,61,58,54,92,81,59,30.10,30.02,12,5,30,0.00
2012-11-19,69,60,52,57,54,51,96,82,64,30.10,29.99,14,3,27,0.00
2012-11-20,68,63,58,60,57,53,91,81,69,30.02,29.90,20,6,31,0.00
2012-11-21,72,64,58,58,55,48,94,73,44,30.01,29.92,21,6,27,0.00
2012-11-22,73,62,51,55,45,35,90,58,27,30.11,30.00,15,4,29,0.00
2012-11-23,71,58,45,52,42,36,90,59,32,30.15,30.03,15,3,24,0.00
2012-11-24,70,60,51,61,53,48,97,79,63,30.05,29.95,24,7,35,0.00
2012-11-25,66,56,45,49,40,31,86,58,28,30.10,30.00,15,3,24,0.00
2012-11-26,76,60,44,60,51,39,87,73,50,30.14,30.04,10,2,16,0.00
2012-11-27,78,67,58,66,62,55,96,84,58,30.10,30.01,16,3,25,0.00
2012-11-28,74,65,57,65,61,54,99,86,61,30.18,30.03,19,5,24,0.00
2012-11-29,79,64,55,59,55,52,93,74,44,30.19,30.09,11,3,21,0.00
2012-11-30,78,67,57,59,55,53,88,69,46,30.17,30.06,10,2,25,0.00
2012-12-1,79,67,56,61,57,52,92,72,47,30.17,30.07,11,3,27,0.00
2012-12-2,81,69,61,63,59,53,96,74,40,30.19,30.08,12,2,23,0.00
2012-12-3,80,70,63,64,60,55,95,72,42,30.19,30.08,10,2,23,0.00
2012-12-4,79,69,60,58,56,47,88,67,35,30.20,30.08,9,2,22,0.00
2012-12-5,78,67,57,64,59,48,92,77,39,30.11,29.95,16,3,22,0.00
2012-12-6,80,71,62,64,62,60,94,75,52,29.97,29.83,10,2,18,0.00
2012-12-7,77,67,60,66,63,60,98,88,64,29.93,29.83,14,2,18,0.00
2012-12-8,79,69,64,70,66,62,99,89,68,29.97,29.88,17,2,24,0.00
2012-12-9,75,68,64,70,66,63,99,92,73,30.02,29.93,12,2,18,0.00
2012-12-10,79,70,63,74,68,62,98,93,80,29.95,29.78,26,6,38,0.54
2012-12-11,77,72,70,72,71,69,99,95,83,29.94,29.81,14,3,28,0.05
2012-12-12,80,73,68,72,70,67,99,91,73,30.00,29.90,13,3,20,0.06
2012-12-13,71,65,57,69,58,52,98,79,59,30.11,29.98,18,9,28,0.00
2012-12-14,72,60,56,59,56,52,94,85,61,30.14,30.01,12,4,22,0.00
2012-12-15,78,65,56,66,60,55,98,85,59,30.06,29.95,8,1,18,0.00
2012-12-16,78,68,61,66,62,60,98,84,56,29.97,29.86,11,2,20,0.00
2012-12-17,76,70,63,70,66,62,97,89,70,29.90,29.81,18,4,31,0.00
2012-12-18,76,70,57,73,66,54,99,89,73,29.96,29.81,23,6,28,0.00
2012-12-19,78,61,50,56,52,42,96,75,30,30.03,29.95,10,1,18,0.00
2012-12-20,79,68,55,71,62,49,95,81,62,30.00,29.86,27,10,40,0.09
2012-12-21,70,59,55,68,44,38,97,59,46,30.14,29.90,34,22,49,0.02
2012-12-22,61,54,43,42,36,24,84,52,26,30.23,30.13,18,6,37,0.00
2012-12-23,67,52,37,47,39,28,90,66,25,30.18,30.06,12,1,15,0.00
2012-12-24,68,59,50,59,51,41,90,75,57,30.06,29.90,14,2,21,0.00
2012-12-25,74,65,56,61,57,54,94,77,60,29.94,29.80,14,3,22,0.00
2012-12-26,76,66,57,70,61,49,94,83,72,29.94,29.75,31,16,48,0.17
2012-12-27,59,53,46,49,46,43,92,77,65,30.03,29.93,17,5,33,0.00
2012-12-28,71,58,42,67,53,41,98,84,52,30.01,29.85,9,2,21,0.27
2012-12-29,72,67,58,72,63,48,99,89,69,30.08,29.79,29,19,48,0.13
2012-12-30,58,50,42,49,38,34,84,66,42,30.28,30.08,23,7,36,0.00
2012-12-31,73,57,44,56,50,41,92,79,52,30.25,30.09,11,2,20,0.00
2013-1-1,75,65,54,60,57,53,97,78,55,30.13,29.96,19,4,35,0.00